Regional Weather Roundup
Issued by NWS New Orleans/Baton Rouge, LA

Home | Current Version | Previous Version | Text Only | Print | Product List | Glossary Off
Versions: 1 2 3 4 5 6 7 8 9 10 11 12 13 14 15 16 17 18 19 20 21 22 23 24 25 26 27 28 29 30 31 32 33 34 35 36 37 38 39 40 41 42 43 44 45 46 47 48 49 50

184
ASUS44 KLIX 270810
RWRLIX
NEW ORLEANS REGIONAL WEATHER ROUNDUP
NATIONAL WEATHER SERVICE NEW ORLEANS LA
200 AM CST TUE JAN 27 2015

NOTE: "FAIR" INDICATES FEW OR NO CLOUDS BELOW 12,000 FEET WITH NO
      SIGNIFICANT WEATHER AND/OR OBSTRUCTIONS TO VISIBILITY.
      SKY/WX - SKY CONDITION AND SIGNIFICANT WEATHER.
      TMP - AIR TEMPERATURE.     DP    - DEWPOINT TEMPERATURE.
      RH  - RELATIVE HUMIDITY.   PRES  - PRESSURE.
      HI  - HEAT INDEX.          WCI   - WIND CHILL INDEX.

*  THESE STATIONS ARE NOT NWS OR FAA STATIONS AND ARE NOT UNDER
   NWS QUALITY CONTROL.

LAZ038-040-048-061>063-065>067-069-270900-
SOUTHEAST LOUISIANA

CITY           SKY/WX    TMP DP  RH WIND       PRES   REMARKS
N.O. AUDUBON     N/A     44  42  92 MISG        N/A
N.O. INTL ARPT CLEAR     49  39  68 SW8       30.10F
N.O. LAKEFRONT CLEAR     51  41  68 SW8       30.10F
N.O. DOWNTOWN*   N/A     52  36  54 S6        30.10F
SLIDELL        CLEAR     47  38  71 CALM      30.07F
BATON ROUGE    CLEAR     44  38  79 SW5       30.08F
BOOTHVILLE     CLEAR     48  45  89 W7        30.12R
BELLE CHASSE   CLEAR     47  38  71 SW7       30.10F
BOGALUSA*        N/A     38  34  85 CALM      30.08F
GALLIANO*      SUNNY     52  47  83 MISG      30.12S
NEW ROADS*       N/A     40  36  85 CALM      30.09F
GONZALES*        N/A     46  43  87 CALM      30.10F
HAMMOND*       CLEAR     46  36  66 CALM      30.09F
HOUMA*         CLEAR     46  45  97 SW3       30.11F
PORT FOURCHON* MOSUNNY   54  50  87 W9        30.15S

$$

MSZ070-080>082-270900-
SOUTHERN MISSISSIPPI

CITY           SKY/WX    TMP DP  RH WIND       PRES   REMARKS
MCCOMB         CLEAR     44  34  67 W5        30.05F
GULFPORT       CLEAR     43  34  70 CALM      30.06F
BILOXI         CLEAR     47  36  66 W6        30.06F
PASCAGOULA     CLEAR     40  35  83 W3        30.07F

$$

COASTAL OBSERVATIONS
LAKE AND NEARSHORE STATIONS

STATION/POSITION TIME  TEMP    WIND        PRES    WAVE
                       AIR SEA DIR/SP/G            HT/PER
                 (UTC) (F)     (DEG/KT/KT) (MB)    (FT/S)
PASCAGOULA       0800   49     290/  8/ 10 1017.5
WAVELAND YACHT   0800   47     280/  5/  8 1017.3
GRAND ISLE       0800   54 57  290/ 14/ 17 1020.1
SOUTHWEST PASS   0800   57 45  300/ 21/ 24 1019.9
NEW CANAL        0800   52 52  230/  6/  8 1019.3
SHELL BEACH      0800   48 53  240/  8/ 11 1019.0

OFFSHORE STATIONS

STATION/POSITION TIME  TEMP    WIND        PRES    WAVE
                       AIR SEA DIR/SP/G            HT/PER
                 (UTC) (F)     (DEG/KT/KT) (MB)    (FT/S)
64 S DAUPHIN ISL 0745   60 70  290/ 23/ 27 1018.5    5/ 8

$$




USA.gov is the U.S. government's official web portal to all federal, state and local government web resources and services.